Time,TemperatureF,DewpointF,PressureIn,WindDirection,WindDirectionDegrees,WindSpeedMPH,WindSpeedGustMPH,Humidity,HourlyPrecipIn,Conditions,Clouds,dailyrainin,SolarRadiationWatts/m^2,SoftwareType,DateUTC
2013-01-06 16:33:00,47.0,32.0,-100.00,North,7,7.0,15.0,56,0.00,,,0.04,449.000000,,2013-01-06 21:33:00,
2013-01-06 16:43:00,47.0,32.0,-100.00,North,7,7.0,15.0,56,0.00,,,0.04,449.000000,,2013-01-06 21:43:00,
2013-01-06 16:53:00,47.0,32.0,-100.00,North,7,7.0,15.0,56,0.00,,,0.04,449.000000,,2013-01-06 21:53:00,
2013-01-06 17:02:00,47.0,32.0,-100.00,North,7,7.0,15.0,56,0.00,,,0.04,449.000000,,2013-01-06 22:02:00,
2013-01-06 17:33:00,45.0,32.0,-100.00,NNE,23,5.0,13.0,60,0.00,,,0.04,228.000000,,2013-01-06 22:33:00,
2013-01-06 17:43:00,45.0,32.0,-100.00,NNE,23,5.0,13.0,60,0.00,,,0.04,228.000000,,2013-01-06 22:43:00,
2013-01-06 17:53:00,45.0,32.0,-100.00,NNE,23,5.0,13.0,60,0.00,,,0.04,228.000000,,2013-01-06 22:53:00,
2013-01-06 18:02:00,45.0,32.0,-100.00,NNE,23,5.0,13.0,60,0.00,,,0.04,228.000000,,2013-01-06 23:02:00,
2013-01-06 18:33:00,41.0,31.0,-100.00,WNW,289,3.0,9.0,68,0.00,,,0.04,18.000000,,2013-01-06 23:33:00,
2013-01-06 18:43:00,41.0,31.0,-100.00,WNW,289,3.0,9.0,68,0.00,,,0.04,18.000000,,2013-01-06 23:43:00,
2013-01-06 18:53:00,41.0,31.0,-100.00,WNW,289,3.0,9.0,68,0.00,,,0.04,18.000000,,2013-01-06 23:53:00,
2013-01-06 19:02:00,41.0,31.0,-100.00,WNW,289,3.0,9.0,68,0.00,,,0.04,18.000000,,2013-01-07 00:02:00,
2013-01-06 19:33:00,40.0,31.0,-100.00,NNW,338,6.0,12.0,70,0.00,,,0.04,0.000000,,2013-01-07 00:33:00,
2013-01-06 19:43:00,40.0,31.0,-100.00,NNW,338,6.0,12.0,70,0.00,,,0.04,0.000000,,2013-01-07 00:43:00,
2013-01-06 19:53:00,40.0,31.0,-100.00,NNW,338,6.0,12.0,70,0.00,,,0.04,0.000000,,2013-01-07 00:53:00,
2013-01-06 20:02:00,40.0,31.0,-100.00,NNW,338,6.0,12.0,70,0.00,,,0.04,0.000000,,2013-01-07 01:02:00,
2013-01-06 20:32:00,40.0,32.0,-100.00,North,1,5.0,14.0,73,0.00,,,0.04,0.000000,,2013-01-07 01:32:00,
2013-01-06 20:43:00,40.0,32.0,-100.00,North,1,5.0,14.0,73,0.00,,,0.04,0.000000,,2013-01-07 01:43:00,
2013-01-06 20:53:00,40.0,32.0,-100.00,North,1,5.0,14.0,73,0.00,,,0.04,0.000000,,2013-01-07 01:53:00,
2013-01-06 21:02:00,40.0,32.0,-100.00,North,1,5.0,14.0,73,0.00,,,0.04,0.000000,,2013-01-07 02:02:00,
2013-01-06 21:32:00,40.0,31.0,-100.00,WNW,296,6.0,14.0,70,0.00,,,0.02,0.000000,,2013-01-07 02:32:00,
2013-01-06 21:43:00,40.0,31.0,-100.00,WNW,296,6.0,14.0,70,0.00,,,0.02,0.000000,,2013-01-07 02:43:00,
2013-01-06 21:53:00,40.0,31.0,-100.00,WNW,296,6.0,14.0,70,0.00,,,0.02,0.000000,,2013-01-07 02:53:00,
2013-01-06 22:02:00,40.0,31.0,-100.00,WNW,296,6.0,14.0,70,0.00,,,0.02,0.000000,,2013-01-07 03:02:00,
2013-01-06 22:33:00,40.0,30.0,-100.00,NNE,26,9.0,24.0,66,0.00,,,0.01,0.000000,,2013-01-07 03:33:00,
2013-01-06 22:43:00,40.0,30.0,-100.00,NNE,26,9.0,24.0,66,0.00,,,0.01,0.000000,,2013-01-07 03:43:00,
2013-01-06 22:53:00,40.0,30.0,-100.00,NNE,26,9.0,24.0,66,0.00,,,0.01,0.000000,,2013-01-07 03:53:00,
2013-01-06 23:02:00,40.0,30.0,-100.00,NNE,26,9.0,24.0,66,0.00,,,0.01,0.000000,,2013-01-07 04:02:00,
2013-01-06 23:33:00,40.0,30.0,-100.00,NNE,25,7.0,20.0,67,0.00,,,0.01,0.000000,,2013-01-07 04:33:00,
2013-01-06 23:42:00,40.0,30.0,-100.00,NNE,25,7.0,20.0,67,0.00,,,0.01,0.000000,,2013-01-07 04:42:00,
2013-01-06 23:53:00,40.0,30.0,-100.00,NNE,25,7.0,20.0,67,0.00,,,0.01,0.000000,,2013-01-07 04:53:00,